Weather History for Bloemfontein, South Africa

Change the Weather History Date:

Monday, July 1, 2013

  Actual Average Record
Temperature  
Mean Temperature 54 °F -  
Max Temperature 75 °F 61 °F 75 °F (2013)
Min Temperature 33 °F 26 °F 19 °F (2002)
Degree Days  
Heating Degree Days 11    
Growing Degree Days 4 (Base 50)    
Moisture  
Dew Point 26 °F    
Average Humidity 35    
Maximum Humidity 60    
Minimum Humidity 7    
Precipitation  
Precipitation 0.00 in 0.01 in - ()
Sea Level Pressure  
Sea Level Pressure 30.16 in    
Wind  
Wind Speed 5 mph ()    
Max Wind Speed 24 mph    
Max Gust Speed -    
Visibility 10.2 miles    
Events      
Averages and records for this station are not official NWS values.
T = Trace of Precipitation, MM = Missing Value Source: Averaged Metar Reports

Daily Weather History Graph

Daily Weather History Graph

Search for Another Location

Airport:

Trip Planner

Search our weather history database for the weather conditions in past years. The results will help you decide how hot, cold, wet, or windy it might be!

Date:

Astronomy

Jul. 01, 2013 Rise Set
Actual Time 7:09 AM SAST 5:28 PM SAST
Civil Twilight 6:43 AM SAST 5:54 PM SAST
Nautical Twilight 6:13 AM SAST 6:23 PM SAST
Astronomical Twilight 5:44 AM SAST 6:52 PM SAST
Moon 1:03 AM SAST (7/1) 12:37 PM SAST (7/1)
Length of Visible Light 11h 10m
Length of Day
10h 18m
Last Quarter, 38% of the Moon is Illuminated
Jul 1
Last Quarter
Jul 8
New
Jul 16
First Quarter
Jul 22
Full
Jul 29
Last Quarter

Hourly Weather History & Observations

Time (SAST) Temp. Windchill Dew Point Humidity Pressure Visibility Wind Dir Wind Speed Gust Speed Precip Events Conditions
12:00 AM 42.8 °F - 21.2 °F 42% 30.18 in - Calm Calm - N/A   Unknown
1:00 AM 42.8 °F - 21.2 °F 42% 30.18 in - Calm Calm - N/A   Unknown
2:00 AM 42 °F - 22 °F 31%  in - ESE 2.3 mph - -  
2:00 AM 41.0 °F - 23.0 °F 49% 30.18 in - ESE 2.3 mph - N/A   Unknown
3:00 AM 41.0 °F - 23.0 °F 49% 30.18 in - ESE 2.3 mph - N/A   Unknown
4:00 AM 39.2 °F 37.0 °F 23.0 °F 52% 30.18 in - NE 3.5 mph - N/A   Unknown
5:00 AM 39 °F - 22 °F 38%  in 19 mi ESE 2.3 mph - -   Scattered Clouds
5:00 AM 37.4 °F - 23.0 °F 56% 30.18 in - ESE 2.3 mph - N/A   Clear
6:00 AM 37.4 °F - 23.0 °F 56% 30.18 in - SE 1.2 mph - N/A   Clear
7:00 AM 35.6 °F - 21.2 °F 56% 30.21 in - Calm Calm - N/A   Clear
7:40 AM 39.2 °F - 24.8 °F 56% 30.21 in - Variable 2.3 mph - N/A   Clear
8:00 AM 38 °F - 24 °F 44%  in 19 mi Calm Calm - -   Scattered Clouds
8:00 AM 37.4 °F - 24.8 °F 60% 30.21 in - Calm Calm - N/A   Clear
9:00 AM 46.4 °F 45.2 °F 26.6 °F 46% 30.21 in - NE 3.5 mph - N/A   Clear
9:09 AM 50.0 °F - 28.4 °F 43% 30.21 in - NNE 5.8 mph - N/A   Clear
9:45 AM 57.2 °F - 30.2 °F 36% 30.21 in - NNE 6.9 mph - N/A   Clear
10:00 AM 59.0 °F - 30.2 °F 34% 30.21 in - NNE 6.9 mph - N/A   Clear
11:00 AM 64.4 °F - 26.6 °F 24% 30.18 in - NW 12.7 mph - N/A   Clear
12:00 PM 69.8 °F - 32.0 °F 25% 30.18 in - NNW 16.1 mph - N/A   Clear
12:19 PM 73.4 °F - 32.0 °F 22% 30.15 in - NNW 17.3 mph - N/A   Clear
1:00 PM 73.4 °F - 32.0 °F 22% 30.12 in - NW 24.2 mph - N/A   Clear
2:00 PM 74 °F - 22 °F 7%  in 5 mi WNW 16.1 mph - -   Blowing Sand
2:00 PM 73.4 °F - 23.0 °F 15% 30.09 in 5.0 mi WNW 15.0 mph - N/A   Mostly Cloudy
3:00 PM 73.4 °F - 30.2 °F 20% 30.09 in 5.0 mi NW 24.2 mph - N/A   Unknown
4:00 PM 73.4 °F - 30.2 °F 20% 30.09 in - NW 18.4 mph - N/A   Clear
5:00 PM 71.6 °F - 28.4 °F 20% 30.09 in - NW 16.1 mph - N/A   Clear
6:00 PM 68.0 °F - 30.2 °F 24% 30.09 in - NW 12.7 mph - N/A   Clear
7:00 PM 64.4 °F - 28.4 °F 26% 30.09 in - NNW 11.5 mph - N/A   Clear
8:00 PM 62 °F - 24 °F 13%  in 12 mi WNW 5.8 mph - -   Mostly Cloudy
8:00 PM 62.6 °F - 28.4 °F 27% 30.12 in - NW 10.4 mph - N/A   Clear
9:00 PM 59.0 °F - 28.4 °F 31% 30.12 in 6.2 mi NW 5.8 mph - N/A   Unknown
10:00 PM 51.8 °F - 24.8 °F 35% 30.12 in - SSW 3.5 mph - N/A   Unknown
11:00 PM 49 °F - 26 °F 28%  in - South 5.8 mph - -  
11:00 PM 48.2 °F - 26.6 °F 43% 30.12 in - South 4.6 mph - N/A   Unknown